Meteo Giornale » Osservazioni meteo Stati Uniti (USA) » Detroit Willow Run

ore: 17:53 - Osservazioni Meteo Detroit Willow Run
Lat. 42° 14' N Lon. 83° 31' W Alt. 218 metri s.l.m.

coperto_pioggia

24 °C

Pioggia

Temp. 24 Ore

21 °C

29 °C

Sud/Sud-Ovest

16.7 Km/h

Dew point 22 °C

Umidità 88 %

Visibilità  14 Km

Il sole sorge alle ore 06:58

Il sole tramonta alle ore 20:09

Data e Ora Cielo e Fenomeni T °C DP °C Um. % Pres. hPa Vis. km Vento km/h
Oggi h: 17:53 coperto_pioggia Pioggia 24 22 88 1016 14 S/SO 16.7
Oggi h: 16:53 coperto_pioggia Pioggia 26 21 73 1017 10 SO 14.8
Oggi h: 15:53 nuvoloso Nuvoloso 28 21 65 1016 10 S 13
Oggi h: 14:53 nuvoloso Nuvoloso 29 21 62 1016 10 S/SO 14.8
Oggi h: 13:53 poco_nuvoloso Poco Nuvoloso 27 21 69 1016 10 S 11.1
Oggi h: 12:53 poco_nuvoloso Poco Nuvoloso 27 19 61 1018 10 SO 7.4
Oggi h: 11:53 sereno Sereno 26 19 65 1018 10 O/SO 13
Oggi h: 10:53 nuvoloso Nuvoloso 25 21 78 1017 10 SO 14.8
Oggi h: 09:53 sereno Sereno 24 20 78 1017 10 SO 14.8
Oggi h: 08:53 nuvoloso Nuvoloso 23 20 83 1017 10 SO 11.1
Oggi h: 07:53 molto_nuvoloso Molto Nuvoloso 22 19 83 1017 10 S/SO 7.4
Oggi h: 06:53 molto_nuvoloso Molto Nuvoloso 21 19 88 1017 10 S/SO 7.4
Oggi h: 05:53 coperto Coperto 22 19 83 1016 10 SO 11.1
Oggi h: 04:53 sereno Sereno 21 19 88 1016 10 SO 11.1
Oggi h: 03:53 molto_nuvoloso Molto Nuvoloso 21 19 88 1016 10 S 9.3
Oggi h: 02:53 molto_nuvoloso Molto Nuvoloso 21 19 88 1017 10 SO 11.1
Oggi h: 01:53 coperto Coperto 21 19 88 1017 14 N 5.5
Oggi h: 00:53 poco_nuvoloso Poco Nuvoloso 21 19 88 1017 14 S/SO 9.3
Ieri h: 23:53 sereno Sereno 21 19 88 1018 10 SO 7.4
Ieri h: 22:53 sereno Sereno 21 19 88 1017 10 S/SO 9.3
Ieri h: 21:53 molto_nuvoloso Molto Nuvoloso 21 19 88 1017 10 S 9.3
Ieri h: 20:53 molto_nuvoloso Molto Nuvoloso 22 18 78 1017 10 S 14.8
Ieri h: 19:53 molto_nuvoloso Molto Nuvoloso 22 18 78 1017 10 S 16.7
Ieri h: 18:53 coperto Coperto 22 18 78 1017 10 S 14.8